Regional Weather Roundup
Issued by NWS

Home | Current Version | Previous Version | Graphics & Text | Print | Product List | Glossary On
Versions: 1 2 3 4 5 6 7 8 9 10 11 12 13 14 15 16 17 18 19 20 21 22 23 24 25 26 27 28 29 30 31 32 33 34 35 36 37 38 39 40 41 42 43 44 45 46 47 48 49 50
000
ASUS45 KCYS 301310
RWRWY

WYOMING REGIONAL WEATHER ROUNDUP
NATIONAL WEATHER SERVICE CHEYENNE WY
700 AM MDT SAT MAY 30 2015

NOTE:  "FAIR" INDICATES FEW OR NO CLOUDS BELOW 12,000 FEET
WITH NO SIGNIFICANT WEATHER AND/OR OBSTRUCTIONS TO VISIBILITY.

WYZ001-301400-
YELLOWSTONE NATIONAL PARK

CITY           SKY/WX    TMP DP  RH WIND       PRES   REMARKS
LK YELLOWSTONE   N/A     34  32  92 CALM      30.30R
W YELLOWSTONE  NOT AVBL

$$
WYZ002>013-054>058-071-098>099-301400-
NORTHERN WYOMING

CITY           SKY/WX    TMP DP  RH WIND       PRES   REMARKS
JACKSON        SUNNY     39  39 100 CALM      30.25F
CODY           FAIR      48  45  87 CALM      30.14F
GREYBULL       FAIR      53  46  77 CALM      30.13S
WORLAND        FAIR      51  46  83 CALM      30.13F
SHERIDAN       PTSUNNY   45  42  89 CALM      30.14R
BUFFALO        FAIR      45  42  89 SE5       30.15S
GILLETTE       FAIR      44  40  85 SE23G30   30.19F
HULETT         FAIR      43  37  81 CALM      30.24S
NEWCASTLE      FAIR      45  37  76 SE14      30.28S

$$
WYZ014>020-022>026-101>103-301400-
CENTRAL WYOMING

CITY           SKY/WX    TMP DP  RH WIND       PRES   REMARKS
BIG PINEY      FAIR      40  38  93 CALM      30.30R
PINEDALE       FAIR      36  36 100 NW3       30.31R
DUBOIS         FAIR      43  37  81 NW9       30.25F
LANDER         FAIR      45  42  89 SE5       30.21S
RIVERTON       FAIR      46  44  93 W6        30.22S
CASPER         FOG       42  40  92 CALM      30.22S VSB 1/4
DOUGLAS        CLOUDY    44  44 100 SE14      30.24F FOG

$$
WYZ021-027>030-104>119-301400-
SOUTHERN WYOMING

CITY           SKY/WX    TMP DP  RH WIND       PRES   REMARKS
EVANSTON       FAIR      46  36  68 SE5       30.26S
KEMMERER       FAIR      43  37  81 N8        30.28S
FORT BRIDGER   SUNNY     43  43 100 N5        30.30S
ROCK SPRINGS   FAIR      47  40  76 SE3       30.27R
DIXON          FAIR      43  37  78 NE8       30.32F
RAWLINS        FAIR      43  40  89 CALM      30.30R
SARATOGA       FAIR      43  37  81 S9        30.32S
LARAMIE        FAIR      39  37  92 SE7       30.32R WCI  34
CHEYENNE       FAIR      46  43  89 SW10      30.29S
TORRINGTON     CLOUDY    47  45  93 E12       30.27F
PINE BLUFFS    CLOUDY    46  45  93 SW6       30.30S

$$



USA.gov is the U.S. government's official web portal to all federal, state and local government web resources and services.